TimeMDT,TemperatureF,Dew PointF,Humidity,Sea Level PressureIn,VisibilityMPH,Wind Direction,Wind SpeedMPH,Gust SpeedMPH,PrecipitationIn,Events,Conditions,WindDirDegrees,DateUTC
5:00 AM,19.4,14.0,80,29.62,15.0,West,6.9,-,N/A,,Partly Cloudy,270,2012-03-17 11:00:00
6:00 AM,24,15,58,29.61,15,SW,4.6,,,,Clear,230,2012-03-17 12:00:00
6:00 AM,23.0,15.8,74,29.61,15.0,South,3.5,-,N/A,,Mostly Cloudy,190,2012-03-17 12:00:00
7:00 AM,24.8,17.6,74,29.63,15.0,NW,2.3,-,N/A,,Mostly Cloudy,320,2012-03-17 13:00:00
8:00 AM,24.8,15.8,69,29.64,30.0,Calm,Calm,-,N/A,,Mostly Cloudy,0,2012-03-17 14:00:00
9:00 AM,26.6,19.4,74,29.63,20.0,SW,2.3,-,N/A,,Overcast,230,2012-03-17 15:00:00
10:00 AM,30.2,19.4,64,29.64,20.0,Calm,Calm,-,N/A,,Overcast,0,2012-03-17 16:00:00
11:00 AM,32.0,21.2,64,29.62,20.0,East,2.3,-,N/A,,Overcast,90,2012-03-17 17:00:00
11:26 AM,-9999,-9999,N/A,-9999,15.0,Calm,Calm,-,N/A,,Unknown,0,2012-03-17 17:26:00
12:00 PM,33,21,49,29.61,12,South,6.9,,,Snow,Light Snow,190,2012-03-17 18:00:00
12:00 PM,33.8,21.2,60,29.61,12.0,SSW,6.9,-,N/A,Snow,Light Snow,200,2012-03-17 18:00:00
12:46 PM,-9999,-9999,N/A,-9999,25.0,SE,8.1,-,N/A,,Overcast,130,2012-03-17 18:46:00
1:00 PM,33.8,21.2,60,29.58,25.0,SE,10.4,-,N/A,,Overcast,140,2012-03-17 19:00:00
2:00 PM,35.6,21.2,56,29.55,25.0,SE,9.2,-,N/A,,Overcast,140,2012-03-17 20:00:00
3:00 PM,35.6,19.4,52,29.49,25.0,SE,11.5,-,N/A,,Overcast,140,2012-03-17 21:00:00
4:00 PM,37.4,21.2,52,29.48,25.0,South,10.4,-,N/A,,Overcast,180,2012-03-17 22:00:00
6:00 PM,34,22,50,29.50,28,SE,12.7,,,,Partly Cloudy,140,2012-03-18 00:00:00
6:00 PM,33.8,23.0,65,29.50,30.0,SE,12.7,-,N/A,,Overcast,130,2012-03-18 00:00:00
7:00 PM,32.0,23.0,69,29.50,30.0,SE,10.4,-,N/A,,Overcast,130,2012-03-18 01:00:00
8:00 PM,30.2,23.0,75,29.50,15.0,SSE,8.1,-,N/A,,Overcast,150,2012-03-18 02:00:00
9:00 PM,28.4,24.8,86,29.51,15.0,SSE,5.8,-,N/A,,Mostly Cloudy,150,2012-03-18 03:00:00
10:00 PM,28.4,24.8,86,29.50,15.0,SE,4.6,-,N/A,,Mostly Cloudy,130,2012-03-18 04:00:00